• In Hungary
  • List of Countries
  • For 7 days
  • Water Temperature
  • Satellite Maps
  • Weather Map
  • News
  • Weather Widgets
  • user-avatar
    Login

    Hourly Weather Santa Elena de Uairén

    Today, 19 July, Thursday

    Time Temperature Precipitation Wind Pressure Humidity
    00:00 +21°C° 0.1 mm 1 mps 683 mmHg 92%
    01:00 +21°C° 0.1 mm 1 mps 682 mmHg 93%
    02:00 +20°C° 0.1 mm 1 mps 682 mmHg 93%
    03:00 +20°C° 0 mm 1 mps 682 mmHg 93%
    04:00 +20°C° 0 mm 1 mps 682 mmHg 93%
    05:00 +20°C° 0 mm 1 mps 682 mmHg 92%
    06:00 +21°C° 0 mm 1 mps 682 mmHg 88%
    07:00 +22°C° 0 mm 1 mps 683 mmHg 84%
    08:00 +23°C° 0 mm 1 mps 683 mmHg 80%
    09:00 +25°C° 0.1 mm 1 mps 684 mmHg 72%
    10:00 +27°C° 0.1 mm 2 mps 684 mmHg 65%
    11:00 +28°C° 0.1 mm 2 mps 684 mmHg 57%
    12:00 +29°C° 0.3 mm 2 mps 683 mmHg 57%
    13:00 +29°C° 0.3 mm 2 mps 683 mmHg 56%
    14:00 +29°C° 0.3 mm 2 mps 682 mmHg 56%
    15:00 +29°C° 0.7 mm 2 mps 682 mmHg 61%
    16:00 +28°C° 0.7 mm 2 mps 681 mmHg 66%
    17:00 +27°C° 0.7 mm 2 mps 681 mmHg 72%
    18:00 +26°C° 0.5 mm 2 mps 681 mmHg 76%
    19:00 +24°C° 0.5 mm 2 mps 681 mmHg 81%
    20:00 +23°C° 0.5 mm 2 mps 681 mmHg 86%
    21:00 +21°C° 0.2 mm 2 mps 682 mmHg 86%
    22:00 +21°C° 0.2 mm 2 mps 682 mmHg 87%
    23:00 +21°C° 0.2 mm 1 mps 683 mmHg 88%

    Tomorrow, 20 July, Friday

    Time Temperature Precipitation Wind Pressure Humidity
    00:00 +21°C° 0 mm 1 mps 682 mmHg 89%
    01:00 +21°C° 0 mm 1 mps 682 mmHg 89%
    02:00 +21°C° 0 mm 1 mps 682 mmHg 90%
    03:00 +21°C° 0 mm 1 mps 682 mmHg 90%
    04:00 +21°C° 0 mm 1 mps 681 mmHg 89%
    05:00 +21°C° 0 mm 1 mps 681 mmHg 89%
    06:00 +21°C° 0 mm 1 mps 682 mmHg 87%
    07:00 +22°C° 0 mm 1 mps 682 mmHg 85%
    08:00 +23°C° 0 mm 1 mps 683 mmHg 83%
    09:00 +24°C° 0.4 mm 2 mps 683 mmHg 77%
    10:00 +26°C° 0.4 mm 2 mps 684 mmHg 71%
    11:00 +28°C° 0.4 mm 3 mps 684 mmHg 66%
    12:00 +28°C° 1 mm 3 mps 683 mmHg 67%
    13:00 +28°C° 1 mm 3 mps 682 mmHg 69%
    14:00 +28°C° 1 mm 3 mps 682 mmHg 71%
    15:00 +27°C° 0.7 mm 3 mps 681 mmHg 72%
    16:00 +27°C° 0.7 mm 3 mps 681 mmHg 74%
    17:00 +26°C° 0.7 mm 2 mps 681 mmHg 75%
    18:00 +25°C° 0.5 mm 2 mps 681 mmHg 80%
    19:00 +24°C° 0.5 mm 2 mps 681 mmHg 84%
    20:00 +23°C° 0.5 mm 2 mps 682 mmHg 89%
    21:00 +21°C° 0.3 mm 2 mps 682 mmHg 90%
    22:00 +22°C° 0.3 mm 1 mps 683 mmHg 90%
    23:00 +22°C° 0.3 mm 1 mps 683 mmHg 91%

    Day after tomorrow, 21 July, Saturday

    Time Temperature Precipitation Wind Pressure Humidity
    00:00 +22°C° 0.1 mm 1 mps 683 mmHg 91%
    01:00 +21°C° 0.1 mm 1 mps 682 mmHg 90%
    02:00 +21°C° 0.1 mm 1 mps 682 mmHg 90%
    03:00 +21°C° 0 mm 1 mps 682 mmHg 90%
    04:00 +21°C° 0 mm 1 mps 682 mmHg 90%
    05:00 +21°C° 0 mm 1 mps 682 mmHg 90%
    06:00 +22°C° 0 mm 1 mps 682 mmHg 86%
    07:00 +23°C° 0 mm 1 mps 683 mmHg 82%
    08:00 +24°C° 0 mm 1 mps 684 mmHg 78%
    09:00 +26°C° 0.1 mm 1 mps 684 mmHg 70%
    10:00 +27°C° 0.1 mm 2 mps 684 mmHg 62%
    11:00 +29°C° 0.1 mm 3 mps 684 mmHg 54%
    12:00 +29°C° 0.2 mm 3 mps 683 mmHg 54%
    13:00 +29°C° 0.2 mm 3 mps 683 mmHg 55%
    14:00 +29°C° 0.2 mm 3 mps 682 mmHg 56%
    15:00 +28°C° 1 mm 2 mps 681 mmHg 64%
    16:00 +27°C° 1 mm 2 mps 681 mmHg 71%
    17:00 +26°C° 1 mm 2 mps 680 mmHg 78%
    18:00 +25°C° 1 mm 2 mps 681 mmHg 82%
    19:00 +24°C° 1 mm 2 mps 681 mmHg 86%
    20:00 +22°C° 1 mm 1 mps 682 mmHg 91%
    21:00 +22°C° 1.1 mm 1 mps 682 mmHg 92%
    22:00 +22°C° 1.1 mm 1 mps 682 mmHg 92%
    23:00 +22°C° 1.1 mm 1 mps 683 mmHg 93%

    22 July, Sunday

    Time Temperature Precipitation Wind Pressure Humidity
    00:00 +21°C° 0.7 mm 1 mps 682 mmHg 93%
    01:00 +21°C° 0.7 mm 1 mps 682 mmHg 93%
    02:00 +21°C° 0.7 mm 1 mps 681 mmHg 92%
    03:00 +21°C° 0.1 mm 1 mps 681 mmHg 92%
    04:00 +21°C° 0.1 mm 1 mps 681 mmHg 92%
    05:00 +20°C° 0.1 mm 1 mps 681 mmHg 92%
    06:00 +21°C° 0 mm 1 mps 682 mmHg 88%
    07:00 +23°C° 0 mm 1 mps 683 mmHg 84%
    08:00 +22°C° 0 mm 0 mps 684 mmHg 81%
    09:00 +25°C° 0 mm 1 mps 684 mmHg 73%
    10:00 +27°C° 0 mm 1 mps 684 mmHg 65%
    11:00 +28°C° 0 mm 2 mps 684 mmHg 57%
    12:00 +29°C° 0.1 mm 2 mps 683 mmHg 55%
    13:00 +29°C° 0.1 mm 2 mps 683 mmHg 54%
    14:00 +30°C° 0.1 mm 2 mps 682 mmHg 53%
    15:00 +28°C° 0.9 mm 2 mps 682 mmHg 61%
    16:00 +27°C° 0.9 mm 2 mps 681 mmHg 68%
    17:00 +26°C° 0.9 mm 2 mps 681 mmHg 75%
    18:00 +25°C° 0.8 mm 2 mps 681 mmHg 80%
    19:00 +24°C° 0.8 mm 2 mps 681 mmHg 85%
    20:00 +23°C° 0.8 mm 1 mps 682 mmHg 89%
    21:00 +22°C° 0.6 mm 1 mps 682 mmHg 90%
    22:00 +22°C° 0.6 mm 1 mps 682 mmHg 90%
    23:00 +22°C° 0.6 mm 1 mps 682 mmHg 91%

    23 July, Monday

    Time Temperature Precipitation Wind Pressure Humidity
    00:00 +22°C° 0.5 mm 1 mps 682 mmHg 91%
    01:00 +21°C° 0.5 mm 1 mps 682 mmHg 91%
    02:00 +21°C° 0.5 mm 1 mps 681 mmHg 91%
    03:00 +21°C° 0 mm 1 mps 681 mmHg 91%
    04:00 +21°C° 0 mm 1 mps 682 mmHg 91%
    05:00 +21°C° 0 mm 1 mps 682 mmHg 91%
    06:00 +22°C° 0 mm 1 mps 682 mmHg 87%
    07:00 +23°C° 0 mm 1 mps 683 mmHg 83%
    08:00 +24°C° 0 mm 1 mps 684 mmHg 79%
    09:00 +26°C° 0.1 mm 2 mps 684 mmHg 72%
    10:00 +27°C° 0.1 mm 2 mps 684 mmHg 65%
    11:00 +28°C° 0.1 mm 3 mps 684 mmHg 58%
    12:00 +29°C° 0.2 mm 3 mps 684 mmHg 58%
    13:00 +29°C° 0.2 mm 3 mps 683 mmHg 57%
    14:00 +30°C° 0.2 mm 3 mps 682 mmHg 57%
    15:00 +29°C° 1 mm 3 mps 682 mmHg 63%
    16:00 +28°C° 1 mm 3 mps 682 mmHg 69%
    17:00 +27°C° 1 mm 2 mps 682 mmHg 76%
    18:00 +25°C° 0.8 mm 2 mps 682 mmHg 80%
    19:00 +24°C° 0.8 mm 2 mps 682 mmHg 84%
    20:00 +23°C° 0.8 mm 2 mps 683 mmHg 88%
    21:00 +21°C° 0.7 mm 2 mps 683 mmHg 89%
    22:00 +22°C° 0.7 mm 1 mps 683 mmHg 90%
    23:00 +22°C° 0.7 mm 1 mps 683 mmHg 91%

    24 July, Tuesday

    Time Temperature Precipitation Wind Pressure Humidity
    00:00 +22°C° 0.1 mm 1 mps 683 mmHg 90%
    01:00 +21°C° 0.1 mm 1 mps 683 mmHg 89%
    02:00 +21°C° 0.1 mm 1 mps 682 mmHg 88%
    03:00 +21°C° 0.4 mm 1 mps 683 mmHg 89%
    04:00 +21°C° 0.4 mm 1 mps 683 mmHg 89%
    05:00 +21°C° 0.4 mm 1 mps 683 mmHg 89%
    06:00 +22°C° 0.6 mm 1 mps 684 mmHg 87%
    07:00 +23°C° 0.6 mm 1 mps 684 mmHg 84%
    08:00 +24°C° 0.6 mm 1 mps 685 mmHg 81%
    09:00 +25°C° 0.7 mm 2 mps 685 mmHg 78%
    10:00 +26°C° 0.7 mm 2 mps 685 mmHg 74%
    11:00 +27°C° 0.7 mm 3 mps 685 mmHg 71%
    12:00 +27°C° 1.8 mm 3 mps 684 mmHg 73%
    13:00 +27°C° 1.8 mm 3 mps 684 mmHg 75%
    14:00 +27°C° 1.8 mm 3 mps 683 mmHg 77%
    15:00 +26°C° 2.3 mm 2 mps 683 mmHg 80%
    16:00 +25°C° 2.3 mm 2 mps 682 mmHg 83%
    17:00 +24°C° 2.3 mm 2 mps 682 mmHg 86%
    18:00 +24°C° 1.8 mm 2 mps 683 mmHg 87%
    19:00 +23°C° 1.8 mm 2 mps 683 mmHg 89%
    20:00 +21°C° 1.8 mm 2 mps 683 mmHg 90%
    21:00 +21°C° 0.5 mm 2 mps 684 mmHg 90%
    22:00 +22°C° 0.5 mm 1 mps 684 mmHg 90%
    23:00 +22°C° 0.5 mm 1 mps 684 mmHg 90%
    Show more